Погода в Тарханах

Россия / Чувашская Республика     55°00′26″N   47°20′11″E
темп.,
°C
ветер,
м/с
пор.,
м/с
влажн.,
%
обл.,
%
осадки,
мм/ч
давл.,
гПа
погр.,
м
14 апреля, ср
ср1400:00+8ю22665 0.0 103024
03:00+7ю22670 0.0 103013
06:00+7ююв22702 0.0 102926
09:00+13ююв36535 0.0 1028342
12:00+17ююв46485 0.0 1026826
15:00+18ююв46515 0.0 10251090
18:00+15юв37685 0.0 1023220
21:00+11ююв28865 0.0 1023149
15 апреля, чт
чт1500:00+10ююв26900 0.0 102286
03:00+9ююв22900 0.0 102215
06:00+9ююв22870 0.0 102138
09:00+15ю245867 0.0 1020476
12:00+17ю234384 0.0 10191416
15:00+18ю223774 0.0 10181788
18:00+15ю11535 0.0 101821
21:00+11сз116436 0.0 101910
16 апреля, пт
пт1600:00+10ссв116997 0.0 101910
03:00+8св4109525 0.0 1020272
06:00+6св5109142 0.0 1022379
09:00+8св687899 0.0 1023569
12:00+9св5874100 0.0 1024681
15:00+12всв576154 0.0 10241029
18:00+11св48615 0.0 1024492
21:00+7св411595 0.0 1026352
17 апреля, сб
сб1700:00+5св411645 0.0 1026321
03:00+2св39725 0.0 1027212
06:00+2св29715 0.0 1028257
09:00+7св57450 0.0 1029740
12:00+10св563533 0.0 10281269
15:00+11св56345 0.0 10281551
18:00+9ссв37465 0.0 1028326
21:00+5ссв29673 0.0 1029181
18 апреля, вс
вс1800:00+4ссв24722 0.0 103059
03:00+2ссв23780 0.0 103046
06:00+2ссв27780 0.0 1031201
09:00+7св45551 0.0 1031752
12:00+10св34425 0.0 10311270
15:00+11св34425 0.0 10301579
18:00+9св355122 0.0 1031220
21:00+6всв38665 0.0 1032254